{"data":{"norad_id":54183,"epoch":"2026-09-20T07:29:30.478848Z","epoch_age_seconds":106023,"freshness":"FRESH","line1":"1 54183U 22141AC  26263.31215832  .00000392  00000+0  22751-4 0  9999","line2":"2 54183  53.1599 194.7063 0001293  88.4333 271.6817 15.34388304215457","mean_motion":15.34388304,"eccentricity":0.0001293,"inclination_deg":53.1599,"raan_deg":194.7063,"arg_perigee_deg":88.4333,"mean_anomaly_deg":271.6817,"bstar":2.2751e-5,"rev_number":21545,"period_min":93.848473443525,"perigee_km":461.85347826681,"apogee_km":463.62252854269,"semimajor_km":6840.8750034047,"source":"CELESTRAK","updated_at":"2026-09-21T09:00:33.093308Z"}}